Time,TemperatureF,DewpointF,PressureIn,WindDirection,WindDirectionDegrees,WindSpeedMPH,WindSpeedGustMPH,Humidity,HourlyPrecipIn,Conditions,Clouds,dailyrainin,SoftwareType,DateUTC
2013-04-02 00:02:00,30.0,20.0,-100.00,NW,320,0.0,0.0,67,-99.99,,,-99.99,,2013-04-02 05:02:00,
2013-04-02 00:12:00,29.0,20.0,-100.00,NNW,330,0.0,0.0,69,-99.99,,,-99.99,,2013-04-02 05:12:00,
2013-04-02 00:22:00,28.0,20.0,-100.00,West,260,0.0,0.0,71,-99.99,,,-99.99,,2013-04-02 05:22:00,
2013-04-02 00:32:00,28.0,20.0,-100.00,West,260,0.0,0.0,71,-99.99,,,-99.99,,2013-04-02 05:32:00,
2013-04-02 00:42:00,28.0,21.0,-100.00,West,280,0.0,0.0,75,-99.99,,,-99.99,,2013-04-02 05:42:00,
2013-04-02 00:52:00,27.0,22.0,-100.00,West,265,0.0,0.0,79,-99.99,,,-99.99,,2013-04-02 05:52:00,
2013-04-02 01:02:00,27.0,22.0,-100.00,West,265,0.0,0.0,79,-99.99,,,-99.99,,2013-04-02 06:02:00,
2013-04-02 01:12:00,27.0,23.0,-100.00,West,270,0.0,0.0,83,-99.99,,,-99.99,,2013-04-02 06:12:00,
2013-04-02 01:22:00,27.0,23.0,-100.00,WNW,285,0.0,0.0,84,-99.99,,,-99.99,,2013-04-02 06:22:00,
2013-04-02 01:32:00,27.0,23.0,-100.00,WNW,285,0.0,0.0,84,-99.99,,,-99.99,,2013-04-02 06:32:00,
2013-04-02 01:42:00,27.0,23.0,-100.00,West,280,0.0,0.0,84,-99.99,,,-99.99,,2013-04-02 06:42:00,
2013-04-02 01:52:00,27.0,23.0,-100.00,WNW,285,0.0,0.0,84,-99.99,,,-99.99,,2013-04-02 06:52:00,
2013-04-02 02:02:00,27.0,23.0,-100.00,WNW,285,0.0,0.0,84,-99.99,,,-99.99,,2013-04-02 07:02:00,
2013-04-02 02:12:00,27.0,23.0,-100.00,WNW,300,0.0,0.0,84,-99.99,,,-99.99,,2013-04-02 07:12:00,
2013-04-02 02:22:00,27.0,23.0,-100.00,NW,325,0.0,0.0,84,-99.99,,,-99.99,,2013-04-02 07:22:00,
2013-04-02 02:32:00,27.0,23.0,-100.00,NW,325,0.0,0.0,84,-99.99,,,-99.99,,2013-04-02 07:32:00,
2013-04-02 02:42:00,27.0,23.0,-100.00,NW,325,0.0,0.0,84,-99.99,,,-99.99,,2013-04-02 07:42:00,
2013-04-02 02:53:00,26.0,22.0,-100.00,NW,320,0.0,0.0,86,-99.99,,,-99.99,,2013-04-02 07:53:00,
2013-04-02 03:02:00,26.0,22.0,-100.00,NW,320,0.0,0.0,86,-99.99,,,-99.99,,2013-04-02 08:02:00,
2013-04-02 03:13:00,26.0,22.0,-100.00,NW,310,0.0,0.0,87,-99.99,,,-99.99,,2013-04-02 08:13:00,
2013-04-02 03:22:00,25.0,22.0,-100.00,West,260,0.0,0.0,88,-99.99,,,-99.99,,2013-04-02 08:22:00,
2013-04-02 03:32:00,25.0,22.0,-100.00,West,260,0.0,0.0,88,-99.99,,,-99.99,,2013-04-02 08:32:00,
2013-04-02 03:42:00,24.0,22.0,-100.00,NW,315,0.0,0.0,90,-99.99,,,-99.99,,2013-04-02 08:42:00,
2013-04-02 03:52:00,24.0,22.0,-100.00,NW,310,0.0,0.0,91,-99.99,,,-99.99,,2013-04-02 08:52:00,
2013-04-02 04:02:00,24.0,22.0,-100.00,NW,310,0.0,0.0,91,-99.99,,,-99.99,,2013-04-02 09:02:00,
2013-04-02 04:12:00,24.0,22.0,-100.00,West,280,0.0,0.0,92,-99.99,,,-99.99,,2013-04-02 09:12:00,
2013-04-02 04:22:00,24.0,22.0,-100.00,West,260,0.0,0.0,94,-99.99,,,-99.99,,2013-04-02 09:22:00,
2013-04-02 04:32:00,24.0,22.0,-100.00,West,260,0.0,0.0,94,-99.99,,,-99.99,,2013-04-02 09:32:00,
2013-04-02 04:43:00,23.0,22.0,-100.00,West,270,0.0,0.0,96,-99.99,,,-99.99,,2013-04-02 09:43:00,
2013-04-02 04:53:00,23.0,22.0,-100.00,West,275,0.0,0.0,97,-99.99,,,-99.99,,2013-04-02 09:53:00,
2013-04-02 05:03:00,23.0,22.0,-100.00,West,275,0.0,0.0,97,-99.99,,,-99.99,,2013-04-02 10:03:00,
2013-04-02 05:13:00,22.0,22.0,-100.00,West,275,0.0,0.0,98,-99.99,,,-99.99,,2013-04-02 10:13:00,
2013-04-02 05:23:00,22.0,22.0,-100.00,NW,320,0.0,0.0,99,-99.99,,,-99.99,,2013-04-02 10:23:00,
2013-04-02 05:33:00,22.0,22.0,-100.00,NW,320,0.0,0.0,99,-99.99,,,-99.99,,2013-04-02 10:33:00,
2013-04-02 05:42:00,22.0,22.0,-100.00,NW,325,0.0,0.0,99,-99.99,,,-99.99,,2013-04-02 10:42:00,
2013-04-02 05:52:00,22.0,22.0,-100.00,West,280,0.0,0.0,99,-99.99,,,-99.99,,2013-04-02 10:52:00,
2013-04-02 06:02:00,22.0,22.0,-100.00,West,280,0.0,0.0,99,-99.99,,,-99.99,,2013-04-02 11:02:00,
2013-04-02 06:12:00,21.0,21.0,-100.00,WSW,250,0.0,0.0,99,-99.99,,,-99.99,,2013-04-02 11:12:00,
2013-04-02 06:22:00,21.0,21.0,-100.00,NW,315,0.0,0.0,99,-99.99,,,-99.99,,2013-04-02 11:22:00,
2013-04-02 06:33:00,21.0,21.0,-100.00,NW,315,0.0,0.0,99,-99.99,,,-99.99,,2013-04-02 11:33:00,
2013-04-02 06:43:00,21.0,21.0,-100.00,SW,220,0.0,0.0,99,-99.99,,,-99.99,,2013-04-02 11:43:00,
2013-04-02 06:53:00,21.0,21.0,-100.00,WSW,255,0.0,0.0,99,-99.99,,,-99.99,,2013-04-02 11:53:00,
2013-04-02 07:02:00,21.0,21.0,-100.00,WSW,255,0.0,0.0,99,-99.99,,,-99.99,,2013-04-02 12:02:00,
2013-04-02 07:12:00,21.0,21.0,-100.00,West,275,0.0,0.0,99,-99.99,,,-99.99,,2013-04-02 12:12:00,
2013-04-02 07:22:00,21.0,21.0,-100.00,WNW,285,0.0,0.0,99,-99.99,,,-99.99,,2013-04-02 12:22:00,
2013-04-02 07:32:00,21.0,21.0,-100.00,WNW,285,0.0,0.0,99,-99.99,,,-99.99,,2013-04-02 12:32:00,
2013-04-02 07:42:00,21.0,21.0,-100.00,WNW,285,0.0,0.0,99,-99.99,,,-99.99,,2013-04-02 12:42:00,
2013-04-02 07:53:00,22.0,22.0,-100.00,West,265,0.0,0.0,99,-99.99,,,-99.99,,2013-04-02 12:53:00,
2013-04-02 08:02:00,22.0,22.0,-100.00,West,265,0.0,0.0,99,-99.99,,,-99.99,,2013-04-02 13:02:00,
2013-04-02 08:12:00,24.0,23.0,-100.00,West,280,0.0,0.0,99,-99.99,,,-99.99,,2013-04-02 13:12:00,
2013-04-02 08:22:00,25.0,25.0,-100.00,WNW,295,0.0,0.0,99,-99.99,,,-99.99,,2013-04-02 13:22:00,
2013-04-02 08:33:00,25.0,25.0,-100.00,WNW,295,0.0,0.0,99,-99.99,,,-99.99,,2013-04-02 13:33:00,
2013-04-02 08:42:00,27.0,26.0,-100.00,NW,315,0.0,0.0,98,-99.99,,,-99.99,,2013-04-02 13:42:00,
2013-04-02 08:52:00,30.0,28.0,-100.00,NW,320,0.0,0.0,94,-99.99,,,-99.99,,2013-04-02 13:52:00,
2013-04-02 09:02:00,30.0,28.0,-100.00,NW,320,0.0,0.0,94,-99.99,,,-99.99,,2013-04-02 14:02:00,
2013-04-02 09:12:00,32.0,28.0,-100.00,NNW,345,0.0,0.0,86,-99.99,,,-99.99,,2013-04-02 14:12:00,
2013-04-02 09:23:00,33.0,26.0,-100.00,North,0,0.0,0.0,76,-99.99,,,-99.99,,2013-04-02 14:23:00,
2013-04-02 09:32:00,33.0,26.0,-100.00,North,0,0.0,0.0,76,-99.99,,,-99.99,,2013-04-02 14:32:00,
2013-04-02 09:42:00,34.0,25.0,-100.00,NNE,20,0.0,0.0,71,-99.99,,,-99.99,,2013-04-02 14:42:00,
2013-04-02 09:52:00,35.0,25.0,-100.00,NE,55,0.0,0.0,66,-99.99,,,-99.99,,2013-04-02 14:52:00,
2013-04-02 10:02:00,35.0,25.0,-100.00,NE,55,0.0,0.0,66,-99.99,,,-99.99,,2013-04-02 15:02:00,
2013-04-02 10:11:00,36.0,24.0,-100.00,NE,35,0.0,0.0,61,-99.99,,,-99.99,,2013-04-02 15:11:00,
2013-04-02 10:22:00,37.0,23.0,-100.00,North,10,0.0,0.0,57,-99.99,,,-99.99,,2013-04-02 15:22:00,
2013-04-02 10:33:00,37.0,23.0,-100.00,North,10,0.0,0.0,57,-99.99,,,-99.99,,2013-04-02 15:33:00,
2013-04-02 10:43:00,38.0,21.0,-100.00,NNE,30,0.0,0.0,49,-99.99,,,-99.99,,2013-04-02 15:43:00,
2013-04-02 10:58:00,39.0,21.0,-100.00,North,355,0.0,0.0,47,-99.99,,,-99.99,,2013-04-02 15:58:00,
2013-04-02 11:04:00,39.0,21.0,-100.00,North,355,0.0,0.0,47,-99.99,,,-99.99,,2013-04-02 16:04:00,
2013-04-02 11:13:00,40.0,20.0,-100.00,North,5,0.0,0.0,45,-99.99,,,-99.99,,2013-04-02 16:13:00,
2013-04-02 11:24:00,40.0,20.0,-100.00,ENE,70,0.0,0.0,43,-99.99,,,-99.99,,2013-04-02 16:24:00,
2013-04-02 11:36:00,40.0,20.0,-100.00,ENE,70,0.0,0.0,43,-99.99,,,-99.99,,2013-04-02 16:36:00,
2013-04-02 11:43:00,41.0,19.0,-100.00,West,260,0.0,0.0,41,-99.99,,,-99.99,,2013-04-02 16:43:00,
2013-04-02 11:53:00,42.0,19.0,-100.00,NW,305,0.0,0.0,39,-99.99,,,-99.99,,2013-04-02 16:53:00,
2013-04-02 12:05:00,42.0,19.0,-100.00,NW,305,0.0,0.0,39,-99.99,,,-99.99,,2013-04-02 17:05:00,
2013-04-02 12:13:00,42.0,18.0,-100.00,WNW,290,0.0,0.0,37,-99.99,,,-99.99,,2013-04-02 17:13:00,
2013-04-02 12:24:00,43.0,17.0,-100.00,NW,305,0.0,0.0,35,-99.99,,,-99.99,,2013-04-02 17:24:00,
2013-04-02 12:34:00,43.0,17.0,-100.00,NW,305,0.0,0.0,35,-99.99,,,-99.99,,2013-04-02 17:34:00,
2013-04-02 12:43:00,43.0,16.0,-100.00,WNW,300,0.0,0.0,33,-99.99,,,-99.99,,2013-04-02 17:43:00,
2013-04-02 12:55:00,44.0,15.0,-100.00,NW,325,0.0,0.0,31,-99.99,,,-99.99,,2013-04-02 17:55:00,
2013-04-02 13:03:00,44.0,15.0,-100.00,NW,325,0.0,0.0,31,-99.99,,,-99.99,,2013-04-02 18:03:00,
2013-04-02 13:12:00,44.0,-6.0,-100.00,NW,325,0.0,0.0,12,-99.99,,,-99.99,,2013-04-02 18:12:00,
2013-04-02 13:23:00,45.0,15.0,-100.00,NW,325,0.0,0.0,29,-99.99,,,-99.99,,2013-04-02 18:23:00,
2013-04-02 13:34:00,45.0,15.0,-100.00,NW,325,0.0,0.0,29,-99.99,,,-99.99,,2013-04-02 18:34:00,
2013-04-02 13:43:00,45.0,14.0,-100.00,North,0,0.0,0.0,28,-99.99,,,-99.99,,2013-04-02 18:43:00,
2013-04-02 13:57:00,44.0,15.0,-100.00,West,280,0.0,0.0,30,-99.99,,,-99.99,,2013-04-02 18:57:00,
2013-04-02 14:03:00,44.0,15.0,-100.00,West,280,0.0,0.0,30,-99.99,,,-99.99,,2013-04-02 19:03:00,
2013-04-02 14:13:00,46.0,16.0,-100.00,SW,235,0.0,0.0,30,-99.99,,,-99.99,,2013-04-02 19:13:00,
2013-04-02 14:23:00,45.0,14.0,-100.00,WNW,285,0.0,0.0,28,-99.99,,,-99.99,,2013-04-02 19:23:00,
2013-04-02 14:34:00,45.0,14.0,-100.00,WNW,285,0.0,0.0,28,-99.99,,,-99.99,,2013-04-02 19:34:00,
2013-04-02 14:45:00,46.0,15.0,-100.00,NW,315,0.0,0.0,28,-99.99,,,-99.99,,2013-04-02 19:45:00,
2013-04-02 14:57:00,48.0,16.0,-100.00,NW,325,0.0,0.0,28,-99.99,,,-99.99,,2013-04-02 19:57:00,
2013-04-02 15:03:00,48.0,16.0,-100.00,NW,325,0.0,0.0,28,-99.99,,,-99.99,,2013-04-02 20:03:00,
2013-04-02 15:13:00,47.0,15.0,-100.00,NNW,330,0.0,0.0,27,-99.99,,,-99.99,,2013-04-02 20:13:00,
2013-04-02 15:22:00,47.0,16.0,-100.00,WNW,295,0.0,0.0,28,-99.99,,,-99.99,,2013-04-02 20:22:00,
2013-04-02 15:33:00,47.0,16.0,-100.00,WNW,295,0.0,0.0,28,-99.99,,,-99.99,,2013-04-02 20:33:00,
2013-04-02 15:44:00,47.0,15.0,-100.00,NW,305,0.0,0.0,27,-99.99,,,-99.99,,2013-04-02 20:44:00,
2013-04-02 15:54:00,49.0,16.0,-100.00,NW,310,0.0,0.0,27,-99.99,,,-99.99,,2013-04-02 20:54:00,
2013-04-02 16:04:00,49.0,16.0,-100.00,NW,310,0.0,0.0,27,-99.99,,,-99.99,,2013-04-02 21:04:00,
2013-04-02 16:13:00,48.0,15.0,-100.00,NW,320,0.0,0.0,27,-99.99,,,-99.99,,2013-04-02 21:13:00,
2013-04-02 16:23:00,48.0,16.0,-100.00,WNW,295,0.0,0.0,28,-99.99,,,-99.99,,2013-04-02 21:23:00,
2013-04-02 16:34:00,48.0,16.0,-100.00,WNW,295,0.0,0.0,28,-99.99,,,-99.99,,2013-04-02 21:34:00,
2013-04-02 16:44:00,48.0,16.0,-100.00,WNW,295,0.0,0.0,28,-99.99,,,-99.99,,2013-04-02 21:44:00,
2013-04-02 16:55:00,48.0,16.0,-100.00,NW,315,0.0,0.0,28,-99.99,,,-99.99,,2013-04-02 21:55:00,
2013-04-02 17:04:00,48.0,16.0,-100.00,NW,315,0.0,0.0,28,-99.99,,,-99.99,,2013-04-02 22:04:00,
2013-04-02 17:14:00,48.0,16.0,-100.00,NW,310,0.0,0.0,28,-99.99,,,-99.99,,2013-04-02 22:14:00,
2013-04-02 17:24:00,49.0,17.0,-100.00,WNW,300,0.0,0.0,28,-99.99,,,-99.99,,2013-04-02 22:24:00,
2013-04-02 17:33:00,49.0,17.0,-100.00,WNW,300,0.0,0.0,28,-99.99,,,-99.99,,2013-04-02 22:33:00,
2013-04-02 17:43:00,49.0,17.0,-100.00,NW,315,0.0,0.0,28,-99.99,,,-99.99,,2013-04-02 22:43:00,
2013-04-02 17:54:00,48.0,16.0,-100.00,NNW,335,0.0,0.0,28,-99.99,,,-99.99,,2013-04-02 22:54:00,
2013-04-02 18:03:00,48.0,16.0,-100.00,NNW,335,0.0,0.0,28,-99.99,,,-99.99,,2013-04-02 23:03:00,
2013-04-02 18:13:00,48.0,17.0,-100.00,NW,325,0.0,0.0,29,-99.99,,,-99.99,,2013-04-02 23:13:00,
2013-04-02 18:23:00,47.0,18.0,-100.00,NW,320,0.0,0.0,30,-99.99,,,-99.99,,2013-04-02 23:23:00,
2013-04-02 18:43:00,47.0,18.0,-100.00,NW,325,0.0,0.0,30,-99.99,,,-99.99,,2013-04-02 23:43:00,
2013-04-02 18:54:00,48.0,18.0,-100.00,NW,320,0.0,0.0,30,-99.99,,,-99.99,,2013-04-02 23:54:00,
2013-04-02 19:04:00,48.0,18.0,-100.00,NW,320,0.0,0.0,30,-99.99,,,-99.99,,2013-04-03 00:04:00,
2013-04-02 19:13:00,47.0,18.0,-100.00,NNW,340,0.0,0.0,32,-99.99,,,-99.99,,2013-04-03 00:13:00,
2013-04-02 19:24:00,46.0,18.0,-100.00,NNW,340,0.0,0.0,33,-99.99,,,-99.99,,2013-04-03 00:24:00,
2013-04-02 19:33:00,46.0,18.0,-100.00,NNW,340,0.0,0.0,33,-99.99,,,-99.99,,2013-04-03 00:33:00,
2013-04-02 19:46:00,44.0,18.0,-100.00,North,350,0.0,0.0,35,-99.99,,,-99.99,,2013-04-03 00:46:00,
2013-04-02 19:56:00,43.0,18.0,-100.00,NNW,330,0.0,0.0,35,-99.99,,,-99.99,,2013-04-03 00:56:00,
2013-04-02 20:03:00,43.0,18.0,-100.00,NNW,330,0.0,0.0,35,-99.99,,,-99.99,,2013-04-03 01:03:00,
2013-04-02 20:12:00,42.0,18.0,-100.00,NNW,345,0.0,0.0,37,-99.99,,,-99.99,,2013-04-03 01:12:00,
2013-04-02 20:22:00,41.0,18.0,-100.00,NNW,340,0.0,0.0,39,-99.99,,,-99.99,,2013-04-03 01:22:00,
2013-04-02 20:33:00,41.0,18.0,-100.00,NNW,340,0.0,0.0,39,-99.99,,,-99.99,,2013-04-03 01:33:00,
2013-04-02 20:42:00,40.0,18.0,-100.00,North,5,0.0,0.0,40,-99.99,,,-99.99,,2013-04-03 01:42:00,
2013-04-02 20:53:00,40.0,18.0,-100.00,North,0,0.0,0.0,41,-99.99,,,-99.99,,2013-04-03 01:53:00,
2013-04-02 21:03:00,40.0,18.0,-100.00,North,0,0.0,0.0,41,-99.99,,,-99.99,,2013-04-03 02:03:00,
2013-04-02 21:13:00,40.0,19.0,-100.00,NNE,15,0.0,0.0,43,-99.99,,,-99.99,,2013-04-03 02:13:00,
2013-04-02 21:24:00,40.0,20.0,-100.00,NNE,20,0.0,0.0,45,-99.99,,,-99.99,,2013-04-03 02:24:00,
2013-04-02 21:34:00,40.0,20.0,-100.00,NNE,20,0.0,0.0,45,-99.99,,,-99.99,,2013-04-03 02:34:00,
2013-04-02 21:43:00,39.0,20.0,-100.00,NNE,25,0.0,0.0,47,-99.99,,,-99.99,,2013-04-03 02:43:00,
2013-04-02 21:53:00,39.0,21.0,-100.00,NNE,30,0.0,0.0,49,-99.99,,,-99.99,,2013-04-03 02:53:00,
2013-04-02 22:05:00,39.0,21.0,-100.00,NNE,30,0.0,0.0,49,-99.99,,,-99.99,,2013-04-03 03:05:00,
2013-04-02 22:14:00,38.0,21.0,-100.00,NNE,15,0.0,0.0,51,-99.99,,,-99.99,,2013-04-03 03:14:00,
2013-04-02 22:23:00,37.0,22.0,-100.00,North,0,0.0,0.0,53,-99.99,,,-99.99,,2013-04-03 03:23:00,
2013-04-02 22:37:00,37.0,22.0,-100.00,North,0,0.0,0.0,53,-99.99,,,-99.99,,2013-04-03 03:37:00,
2013-04-02 22:43:00,37.0,22.0,-100.00,North,0,0.0,0.0,55,-99.99,,,-99.99,,2013-04-03 03:43:00,
2013-04-02 22:54:00,36.0,22.0,-100.00,North,5,0.0,0.0,56,-99.99,,,-99.99,,2013-04-03 03:54:00,
2013-04-02 23:03:00,36.0,22.0,-100.00,North,5,0.0,0.0,56,-99.99,,,-99.99,,2013-04-03 04:03:00,
2013-04-02 23:12:00,36.0,22.0,-100.00,North,0,0.0,0.0,57,-99.99,,,-99.99,,2013-04-03 04:12:00,
2013-04-02 23:23:00,35.0,22.0,-100.00,North,0,0.0,0.0,59,-99.99,,,-99.99,,2013-04-03 04:23:00,
2013-04-02 23:33:00,35.0,22.0,-100.00,North,0,0.0,0.0,59,-99.99,,,-99.99,,2013-04-03 04:33:00,
2013-04-02 23:43:00,35.0,23.0,-100.00,North,5,0.0,0.0,61,-99.99,,,-99.99,,2013-04-03 04:43:00,
2013-04-02 23:53:00,34.0,23.0,-100.00,North,10,0.0,0.0,62,-99.99,,,-99.99,,2013-04-03 04:53:00,